Flag Weather past 2 weeks in Bandar-Abbas, Iran

Now
68 °F

Fog.


Feels Like: 68 °F
Forecast: 65 / 80 °F
Wind: 5 mph from North

Location: Bandarabbass

Current Time: Nov 27, 2014 at 8:14:30 AM

Latest Report: Nov 27, 2014 at 6:55 AM


Visibility: 2 mi

Pressure: 29.92 "Hg

Humidity: 94%

Dew point: 66 °F

Location of Bandar-AbbasLocation

Historic Weather in Bandar-Abbas — Graph

°F

Bandar-Abbas temperature yesterday

Maximum temperature yesterday: 84 °F (at 12:30 PM)
Minimum temperature yesterday: 70 °F (at 2:30 AM)
Average temperature yesterday: 77 °F

Past Weeks' High & Low Weather Summary

 TemperatureHumidityPressure
High90 °F (Nov 13, 2:00 PM)94% (Nov 24, 12:30 AM)30.15 "Hg (Nov 24, 12:30 AM)
Low50 °F (Nov 16, 6:30 AM)11% (Nov 12, 11:00 AM)29.86 "Hg (Nov 23, 1:00 PM)
Average74 °F56%29.98 "Hg
* Reported Nov 12 6:30 AM — Nov 27 6:55 AM, Bandar-Abbas, Weather by CustomWeather, © 2014

Note: Actual official high and low records may vary slightly from our data, if they occured in-between our weather recording intervals... More about our weather records

Advertising

Bandar-Abbas weather history for previous 24 hours

 ConditionsComfort  
Time TempWeatherWind HumidityBarometerVisibility
6:55 AM
Nov 27
68 °FFog.5 mph94%29.92 "Hg1 mi
6:30 AM70 °FFog.7 mph94%29.92 "Hg1 mi
6:00 AM68 °FFog.5 mph94%29.92 "Hg2 mi
5:30 AM68 °FFog.5 mph94%29.89 "Hg2 mi
4:30 AMN/A7 mphN/AN/A30 mi
3:20 AM70 °FFog.5 mph94%29.89 "Hg2 mi
2:30 AM70 °FFog.5 mph94%29.89 "Hg2 mi
1:30 AM70 °FFog.5 mph94%29.89 "Hg2 mi
1:00 AM72 °FFog.5 mph88%29.89 "Hg2 mi
12:30 AM72 °FFog.5 mph88%29.89 "Hg2 mi
12:00 AM73 °FFog.5 mph83%29.89 "Hg2 mi
11:30 PM
Nov 26
73 °FFog.5 mph83%29.89 "Hg3 mi
11:00 PM75 °FFog.No wind83%29.89 "Hg3 mi
10:30 PM75 °FFog.5 mph89%29.89 "Hg3 mi
10:00 PM75 °FFog.7 mph89%29.89 "Hg3 mi
9:30 PM77 °FFog.7 mph83%29.92 "Hg3 mi
9:00 PM77 °FFog.7 mph83%29.92 "Hg3 mi
8:30 PM77 °FFog.12 mph83%29.92 "Hg3 mi
8:00 PM77 °FFog.7 mph83%29.92 "Hg3 mi
7:30 PM77 °FFog.7 mph83%29.92 "Hg3 mi
7:00 PM77 °FFog.7 mph83%29.89 "Hg3 mi
6:30 PM77 °FFog.12 mph83%29.89 "Hg3 mi
6:00 PM77 °FFog.12 mph83%29.89 "Hg3 mi
5:30 PM77 °FFog.9 mph83%29.89 "Hg3 mi
5:00 PM79 °FHaze.12 mph79%29.89 "Hg3 mi
4:30 PM79 °FPassing clouds.14 mph74%29.89 "Hg5 mi
4:00 PM81 °FPassing clouds.14 mph70%29.89 "Hg5 mi
3:30 PM81 °FPassing clouds.14 mph70%29.89 "Hg5 mi
2:58 PM81 °FPassing clouds.16 mph70%29.89 "Hg5 mi
2:30 PM81 °FPassing clouds.12 mph70%29.89 "Hg4 mi
2:00 PM82 °FPassing clouds.12 mph70%29.89 "Hg4 mi
1:30 PM82 °FPassing clouds.12 mph62%29.89 "Hg4 mi
1:00 PM82 °FPassing clouds.12 mph62%29.92 "Hg4 mi
12:30 PM84 °FScattered clouds.9 mph58%29.92 "Hg4 mi
12:00 PM82 °FScattered clouds.9 mph62%29.92 "Hg4 mi
11:30 AM82 °FScattered clouds.7 mph58%29.95 "Hg4 mi
11:00 AM82 °FScattered clouds.7 mph62%29.95 "Hg4 mi
10:30 AM81 °FScattered clouds.9 mph62%29.98 "Hg4 mi
10:00 AM81 °FBroken clouds.7 mph62%29.98 "Hg4 mi
9:30 AM79 °FScattered clouds.12 mph70%29.98 "Hg4 mi
9:00 AM77 °FBroken clouds.12 mph79%29.98 "Hg3 mi
8:30 AM75 °FFog.9 mph83%29.98 "Hg3 mi
8:00 AM73 °FFog.7 mph83%29.98 "Hg3 mi
Weather by CustomWeather, © 2014

See weather overviewHow to use our weather pages